Regional Weather Roundup
Issued by NWS

Home | Current Version | Previous Version | Graphics & Text | Print | Product List | Glossary On
Versions: 1 2 3 4 5 6 7 8 9 10 11 12 13 14 15 16 17 18 19 20 21 22 23 24 25 26 27 28 29 30 31 32 33 34 35 36 37 38 39 40 41 42 43 44 45 46 47 48 49 50
000
ASUS43 KOAX 031810
RWRNE

WEATHER ROUNDUP FOR NEBRASKA
NATIONAL WEATHER SERVICE OMAHA NE
1200 PM CST SAT DEC 03 2016

NOTES: SATELLITE DATA IS BEING USED TO AUGMENT CLOUD COVER ABOVE
       12000 FEET.
       "FAIR" INDICATES FEW OR NO CLOUDS BELOW 12,000 FEET WITH NO
       SIGNIFICANT WEATHER AND/OR OBSTRUCTIONS TO VISIBILITY.

  * THESE STATIONS DO NOT REPORT WEATHER SUCH AS RAIN...SNOW OR FOG.

NEZ001>004-019>022-054>056-031900-
NEBRASKA PANHANDLE

CITY           SKY/WX    TMP DP  RH WIND       PRES   REMARKS
SCOTTSBLUFF    SUNNY     42  11  28 W17G28    29.97F
6HR MIN TEMP:  12; 6HR MAX TEMP:  42;

ALLIANCE       SUNNY     40  10  29 W21G29    29.96F WCI  30
6HR MIN TEMP:  19; 6HR MAX TEMP:  40;

CHADRON        SUNNY     42  11  28 W22G30    29.93F
6HR MIN TEMP:  22; 6HR MAX TEMP:  42;

KIMBALL        SUNNY     39  21  48 W14       29.99F WCI  31
SIDNEY         SUNNY     38  21  50 W6        30.01F WCI  33
6HR MIN TEMP:  18; 6HR MAX TEMP:  38;

$$

NEZ057>060-069>072-079>082-031900-
SOUTHWEST NEBRASKA

CITY           SKY/WX    TMP DP  RH WIND       PRES   REMARKS
NORTH PLATTE   SUNNY     44  21  40 S18       30.06F
6HR MIN TEMP:  30; 6HR MAX TEMP:  44;

LEXINGTON      CLOUDY    34  29  83 S12       30.13F WCI  25
OGALLALA       SUNNY     43  22  42 SW15      30.04F
$$

NEZ005>010-023>029-035>040-094-031900-
NORTH CENTRAL NEBRASKA

CITY           SKY/WX    TMP DP  RH WIND       PRES   REMARKS
VALENTINE      SUNNY     44  23  43 SW17G32   29.97F
6HR MIN TEMP:  31; 6HR MAX TEMP:  44;

AINSWORTH      SUNNY     43  27  54 S18G25    29.99F
BROKEN BOW     CLOUDY    37  28  70 S16G24    30.09F WCI  28
6HR MIN TEMP:  31; 6HR MAX TEMP:  37;

O`NEILL        CLOUDY    38  30  73 S15       30.10F WCI  29
ORD            CLOUDY    36  27  69 S12       30.12F WCI  28
6HR MIN TEMP:  26; 6HR MAX TEMP:  36;

THEDFORD       SUNNY     44  23  43 SW20G28   30.02F
$$

NEZ041-046>049-061>064-073>077-083>087-031900-
SOUTH CENTRAL NEBRASKA

CITY           SKY/WX    TMP DP  RH WIND       PRES   REMARKS
GRAND ISLAND   LGT SNOW  32  32 100 S7        30.19F VSB 1   WCI  26
6HR MIN TEMP:  27; 6HR MAX TEMP:  33; 6HR PCP:  0.03;

AURORA         LGT SNOW  33  33  99 S5        30.20F WCI  28
HASTINGS       LGT SNOW  33  32  96 S5        30.20F FOG     WCI  29
6HR MIN TEMP:  29; 6HR MAX TEMP:  33; 6HR PCP:  0.05;

HEBRON         LGT SNOW  32  32 100 SE3       30.23F VSB 3/4
HOLDREGE       LGT SNOW  33  32  96 S9        30.16F WCI  25
KEARNEY *      CLOUDY    34  30  86 S10       30.17F WCI  26
YORK           LGT SNOW  32  32 100 S5        30.22F WCI  27
$$

NEZ011>018-030>034-042>045-031900-
NORTHEAST NEBRASKA

CITY           SKY/WX    TMP DP  RH WIND       PRES   REMARKS
NORFOLK        FLURRIES  33  28  81 S14       30.20F WCI  23
6HR MIN TEMP:  18; 6HR MAX TEMP:  33; 6HR PCP: TRACE;

ALBION         LGT SNOW  33  30  88 S9        30.19F WCI  26
BLAIR          FLURRIES  34  31  89 S10       30.26F WCI  26
FREMONT        LGT SNOW  32  32  98 S8        30.27F WCI  25
TEKAMAH        CLOUDY    34  29  82 S10       30.28F WCI  26
6HR MIN TEMP:  22; 6HR MAX TEMP:  34;

WAYNE          CLOUDY    34  31  89 S14       30.21F WCI  25
$$

NEZ050>053-065>068-078-088>093-031900-
SOUTHEAST NEBRASKA

CITY           SKY/WX    TMP DP  RH WIND       PRES   REMARKS
LINCOLN        LGT SNOW  33  32  96 SE5       30.26F VSB 1   WCI  29
6HR MIN TEMP:  22; 6HR MAX TEMP:  33; 6HR PCP:  0.04;

OMAHA EPPLEY   CLOUDY    34  28  79 S9        30.29F WCI  27
6HR MIN TEMP:  23; 6HR MAX TEMP:  34;

BEATRICE       LGT SNOW  33  33 100 SE3       30.25F VSB 1
FALLS CITY     CLOUDY    37  32  82 E5        30.26F WCI  33
NEBRASKA CITY  CLOUDY    34  30  86 CALM      30.28F
PLATTSMOUTH    LGT SNOW  34  29  82 S7        30.28F WCI  27
$$

NEZ044-045-051>053-067-031900-
OMAHA AREA

CITY           SKY/WX    TMP DP  RH WIND       PRES   REMARKS
OMAHA EPPLEY   CLOUDY    34  28  79 S9        30.29F WCI  27
6HR MIN TEMP:  23; 6HR MAX TEMP:  34;

BLAIR          FLURRIES  34  31  89 S10       30.26F WCI  26
FREMONT        LGT SNOW  32  32  98 S8        30.27F WCI  25
MILLARD        LGT SNOW  35  32  89 S6        30.28F WCI  30
OFFUTT AFB     FLURRIES  36  34  93 S7        30.28F WCI  30
PLATTSMOUTH    LGT SNOW  34  29  82 S7        30.28F WCI  27
WAHOO          LGT SNOW  32  31  96 S7        30.26F WCI  26
$$




USA.gov is the U.S. government's official web portal to all federal, state and local government web resources and services.